| time (UTC) | temp F | wind direction | speed MPH | gust MPH | rain 1hr in | rain 24hr in | rain mn in | humidity % | barometer mb |
| 20260506001531 | 34 | 0.0 | 3.0 | 0.00 | 0.08 | 0.00 | 79 | 1006.7 | |
| 20260506000531 | 34 | 270 | 1.0 | 6.0 | 0.00 | 0.08 | 0.00 | 79 | 1006.5 |
| 20260505235531 | 35 | 0.0 | 2.0 | 0.00 | 0.08 | 0.00 | 79 | 1006.4 | |
| 20260505234532 | 35 | 293 | 2.0 | 8.0 | 0.00 | 0.08 | 0.00 | 79 | 1006.4 |
| 20260505233531 | 35 | 293 | 2.0 | 6.0 | 0.00 | 0.08 | 0.00 | 79 | 1006.5 |
| 20260505232532 | 35 | 270 | 5.0 | 8.0 | 0.00 | 0.08 | 0.00 | 79 | 1006.5 |
| 20260505231532 | 35 | 270 | 3.0 | 7.0 | 0.00 | 0.08 | 0.00 | 79 | 1006.4 |
| 20260505230531 | 35 | 293 | 3.0 | 10.0 | 0.00 | 0.08 | 0.00 | 78 | 1006.4 |
| 20260505225531 | 36 | 293 | 2.0 | 10.0 | 0.00 | 0.08 | 0.00 | 77 | 1006.3 |
| 20260505224532 | 36 | 315 | 3.0 | 9.0 | 0.00 | 0.08 | 0.00 | 76 | 1006.3 |
| 20260505223612 | 36 | 293 | 2.0 | 5.0 | 0.00 | 0.08 | 0.00 | 75 | 1006.1 |
| 20260505222531 | 37 | 293 | 4.0 | 9.0 | 0.00 | 0.08 | 0.00 | 74 | 1006.2 |
| 20260505221531 | 37 | 293 | 5.0 | 11.0 | 0.00 | 0.08 | 0.00 | 74 | 1006.2 |
| 20260505220551 | 37 | 270 | 4.0 | 10.0 | 0.00 | 0.08 | 0.00 | 73 | 1006.2 |
| 20260505215530 | 37 | 270 | 3.0 | 7.0 | 0.00 | 0.08 | 0.00 | 72 | 1006.1 |
| 20260505214531 | 38 | 270 | 4.0 | 9.0 | 0.00 | 0.08 | 0.00 | 72 | 1006.1 |
| 20260505213530 | 38 | 293 | 6.0 | 11.0 | 0.00 | 0.08 | 0.00 | 71 | 1006.0 |
| 20260505212531 | 38 | 293 | 4.0 | 12.0 | 0.00 | 0.08 | 0.00 | 71 | 1005.9 |
| 20260505211531 | 38 | 293 | 5.0 | 11.0 | 0.00 | 0.08 | 0.00 | 71 | 1005.9 |
| 20260505210532 | 38 | 293 | 5.0 | 12.0 | 0.00 | 0.08 | 0.00 | 71 | 1005.7 |
| 20260505205531 | 39 | 315 | 3.0 | 9.0 | 0.00 | 0.08 | 0.08 | 70 | 1005.6 |
| 20260505204531 | 39 | 293 | 4.0 | 9.0 | 0.00 | 0.08 | 0.08 | 69 | 1005.5 |
| 20260505203531 | 39 | 293 | 3.0 | 8.0 | 0.00 | 0.08 | 0.08 | 69 | 1005.5 |
| 20260505202531 | 39 | 270 | 4.0 | 9.0 | 0.00 | 0.08 | 0.08 | 68 | 1005.3 |
| 20260505201531 | 40 | 270 | 4.0 | 11.0 | 0.00 | 0.08 | 0.08 | 67 | 1005.3 |
| 20260505200533 | 40 | 293 | 4.0 | 9.0 | 0.00 | 0.08 | 0.08 | 66 | 1005.2 |
| 20260505195532 | 40 | 293 | 5.0 | 10.0 | 0.00 | 0.08 | 0.08 | 64 | 1005.1 |
| 20260505194532 | 40 | 293 | 4.0 | 9.0 | 0.00 | 0.08 | 0.08 | 63 | 1005.0 |
| 20260505193532 | 41 | 270 | 4.0 | 12.0 | 0.00 | 0.08 | 0.08 | 62 | 1004.9 |
| 20260505192531 | 41 | 270 | 4.0 | 10.0 | 0.00 | 0.08 | 0.08 | 59 | 1004.8 |
| 20260505191531 | 41 | 270 | 3.0 | 10.0 | 0.00 | 0.08 | 0.08 | 57 | 1004.8 |
| 20260505190532 | 41 | 270 | 2.0 | 7.0 | 0.00 | 0.08 | 0.08 | 56 | 1004.7 |
| 20260505185532 | 42 | 270 | 2.0 | 8.0 | 0.00 | 0.08 | 0.08 | 55 | 1004.7 |
| 20260505184530 | 42 | 270 | 1.0 | 7.0 | 0.00 | 0.08 | 0.08 | 55 | 1004.5 |
| 20260505183531 | 43 | 270 | 1.0 | 4.0 | 0.00 | 0.08 | 0.08 | 53 | 1004.5 |
| 20260505182551 | 43 | 270 | 2.0 | 7.0 | 0.00 | 0.08 | 0.08 | 51 | 1004.3 |
| 20260505181532 | 44 | 270 | 2.0 | 7.0 | 0.00 | 0.08 | 0.08 | 51 | 1004.2 |
| 20260505180532 | 44 | 270 | 2.0 | 8.0 | 0.00 | 0.08 | 0.08 | 51 | 1004.1 |
| 20260505175531 | 45 | 270 | 2.0 | 4.0 | 0.00 | 0.08 | 0.08 | 51 | 1004.0 |
| 20260505174532 | 46 | 293 | 2.0 | 12.0 | 0.00 | 0.08 | 0.08 | 50 | 1003.9 |
| 20260505173532 | 46 | 270 | 3.0 | 11.0 | 0.00 | 0.08 | 0.08 | 49 | 1003.8 |
| 20260505172612 | 47 | 270 | 2.0 | 7.0 | 0.00 | 0.08 | 0.08 | 47 | 1003.8 |
| 20260505171531 | 47 | 270 | 2.0 | 10.0 | 0.00 | 0.08 | 0.08 | 48 | 1003.8 |
| 20260505170531 | 47 | 293 | 1.0 | 6.0 | 0.00 | 0.08 | 0.08 | 47 | 1003.6 |
| 20260505165532 | 48 | 270 | 4.0 | 14.0 | 0.00 | 0.08 | 0.08 | 46 | 1003.7 |
| 20260505164531 | 49 | 293 | 5.0 | 13.0 | 0.00 | 0.08 | 0.08 | 45 | 1003.7 |
| 20260505163532 | 48 | 270 | 1.0 | 7.0 | 0.00 | 0.08 | 0.08 | 48 | 1003.6 |
| 20260505162532 | 48 | 293 | 5.0 | 13.0 | 0.00 | 0.08 | 0.08 | 46 | 1003.5 |
| 20260505161530 | 48 | 270 | 3.0 | 9.0 | 0.00 | 0.08 | 0.08 | 46 | 1003.5 |
| 20260505160532 | 49 | 270 | 5.0 | 13.0 | 0.00 | 0.08 | 0.08 | 45 | 1003.4 |
| 20260505152552 | 49 | 270 | 2.0 | 8.0 | 0.00 | 0.08 | 0.08 | 47 | 1003.2 |
| 20260505151532 | 49 | 270 | 5.0 | 15.0 | 0.00 | 0.08 | 0.08 | 46 | 1003.2 |
| 20260505150552 | 49 | 225 | 2.0 | 9.0 | 0.00 | 0.08 | 0.08 | 46 | 1003.0 |
| 20260505140533 | 49 | 270 | 5.0 | 11.0 | 0.01 | 0.08 | 0.08 | 48 | 1002.9 |
| 20260505124533 | 50 | 270 | 5.0 | 15.0 | 0.00 | 0.07 | 0.07 | 52 | 1002.5 |
| 20260505123531 | 49 | 293 | 7.0 | 19.0 | 0.00 | 0.07 | 0.07 | 52 | 1002.4 |
| 20260505122531 | 48 | 293 | 7.0 | 20.0 | 0.00 | 0.07 | 0.07 | 53 | 1002.4 |
| 20260505121531 | 49 | 293 | 8.0 | 22.0 | 0.00 | 0.07 | 0.07 | 50 | 1002.3 |
| 20260505120532 | 48 | 270 | 4.0 | 14.0 | 0.00 | 0.07 | 0.07 | 55 | 1002.3 |
| 20260505115534 | 47 | 270 | 6.0 | 16.0 | 0.00 | 0.07 | 0.07 | 57 | 1002.2 |
| 20260505114533 | 47 | 315 | 6.0 | 15.0 | 0.00 | 0.07 | 0.07 | 60 | 1002.1 |
| 20260505113532 | 47 | 270 | 9.0 | 17.0 | 0.00 | 0.07 | 0.07 | 55 | 1002.0 |
| 20260505112532 | 49 | 293 | 6.0 | 17.0 | 0.00 | 0.07 | 0.07 | 54 | 1001.9 |
| 20260505111552 | 48 | 293 | 7.0 | 18.0 | 0.00 | 0.07 | 0.07 | 57 | 1001.8 |
| 20260505110532 | 47 | 270 | 6.0 | 17.0 | 0.00 | 0.07 | 0.07 | 58 | 1001.8 |
| 20260505101552 | 47 | 293 | 8.0 | 19.0 | 0.00 | 0.07 | 0.07 | 62 | 1001.2 |
| 20260505100532 | 46 | 293 | 6.0 | 16.0 | 0.00 | 0.07 | 0.07 | 72 | 1001.2 |
| 20260505095552 | 45 | 293 | 9.0 | 23.0 | 0.00 | 0.07 | 0.07 | 74 | 1001.2 |
| 20260505094613 | 44 | 270 | 8.0 | 18.0 | 0.00 | 0.07 | 0.07 | 77 | 1001.2 |
| 20260505093532 | 43 | 315 | 8.0 | 17.0 | 0.00 | 0.07 | 0.07 | 77 | 1001.2 |
| 20260505092532 | 43 | 270 | 9.0 | 21.0 | 0.00 | 0.07 | 0.07 | 78 | 1001.3 |
| 20260505091532 | 44 | 270 | 8.0 | 18.0 | 0.00 | 0.07 | 0.07 | 78 | 1000.9 |
| 20260505090530 | 42 | 293 | 7.0 | 16.0 | 0.00 | 0.07 | 0.07 | 78 | 1001.0 |
| 20260505085552 | 42 | 293 | 6.0 | 17.0 | 0.00 | 0.07 | 0.07 | 77 | 1000.9 |
| 20260505084532 | 42 | 293 | 6.0 | 11.0 | 0.00 | 0.07 | 0.07 | 77 | 1000.8 |
| 20260505083532 | 42 | 315 | 6.0 | 13.0 | 0.00 | 0.07 | 0.07 | 73 | 1000.8 |
| 20260505082531 | 42 | 293 | 6.0 | 13.0 | 0.00 | 0.07 | 0.07 | 65 | 1000.6 |
| 20260505081531 | 41 | 315 | 5.0 | 15.0 | 0.00 | 0.07 | 0.07 | 53 | 1000.6 |
| 20260505080531 | 40 | 315 | 5.0 | 10.0 | 0.00 | 0.07 | 0.07 | 54 | 1000.5 |
| 20260505075532 | 41 | 315 | 7.0 | 14.0 | 0.00 | 0.07 | 0.07 | 69 | 1000.4 |
| 20260505074551 | 42 | 293 | 6.0 | 14.0 | 0.00 | 0.07 | 0.07 | 65 | 1000.2 |
| 20260505073532 | 41 | 293 | 3.0 | 8.0 | 0.00 | 0.07 | 0.07 | 50 | 1000.1 |
| 20260505072531 | 40 | 293 | 5.0 | 11.0 | 0.00 | 0.07 | 0.07 | 41 | 1000.0 |
| 20260505071532 | 40 | 293 | 2.0 | 4.0 | 0.00 | 0.07 | 0.07 | 31 | 999.8 |
| 20260505070532 | 40 | 315 | 2.0 | 7.0 | 0.00 | 0.07 | 0.07 | 28 | 999.6 |
| 20260505065532 | 39 | 315 | 2.0 | 9.0 | 0.00 | 0.07 | 0.07 | 27 | 999.6 |
| 20260505064531 | 39 | 315 | 4.0 | 11.0 | 0.00 | 0.07 | 0.07 | 29 | 999.5 |
| 20260505063530 | 39 | 315 | 3.0 | 9.0 | 0.00 | 0.07 | 0.07 | 23 | 999.3 |
| 20260505062532 | 39 | 338 | 2.0 | 9.0 | 0.01 | 0.07 | 0.07 | 13 | 999.3 |
| 20260505061531 | 39 | 293 | 3.0 | 10.0 | 0.01 | 0.07 | 0.07 | 3 | 999.3 |
| 20260505060532 | 38 | 0 | 2.0 | 9.0 | 0.02 | 0.07 | 0.07 | 5 | 999.1 |
| 20260505055531 | 38 | 338 | 3.0 | 11.0 | 0.02 | 0.07 | 0.07 | 5 | 999.0 |
| 20260505054552 | 38 | 338 | 4.0 | 10.0 | 0.02 | 0.07 | 0.07 | 8 | 998.9 |
| 20260505053531 | 38 | 338 | 3.0 | 5.0 | 0.02 | 0.07 | 0.07 | 7 | 998.9 |
| 20260505052531 | 38 | 315 | 5.0 | 10.0 | 0.02 | 0.06 | 0.06 | 7 | 998.7 |
| 20260505051552 | 38 | 0 | 3.0 | 6.0 | 0.02 | 0.06 | 0.06 | 9 | 998.7 |
| 20260505050551 | 38 | 338 | 2.0 | 4.0 | 0.02 | 0.06 | 0.06 | 18 | 998.6 |
| 20260505041531 | 40 | 293 | 2.0 | 5.0 | 0.03 | 0.04 | 0.04 | 7 | 998.3 |
| 20260505040531 | 40 | 293 | 3.0 | 7.0 | 0.04 | 0.04 | 0.04 | 1 | 998.4 |
| 20260505035529 | 40 | 293 | 2.0 | 4.0 | 0.03 | 0.03 | 0.03 | 1 | 998.2 |
| 20260505034532 | 40 | 293 | 2.0 | 5.0 | 0.03 | 0.03 | 0.03 | 1 | 998.2 |
| 20260505033533 | 40 | 293 | 2.0 | 7.0 | 0.02 | 0.02 | 0.02 | 3 | 998.2 |
| 20260505032532 | 40 | 293 | 3.0 | 7.0 | 0.02 | 0.02 | 0.02 | 7 | 998.4 |
| 20260505031532 | 40 | 293 | 3.0 | 8.0 | 0.01 | 0.01 | 0.02 | 15 | 998.4 |
| 20260505030532 | 40 | 293 | 2.0 | 8.0 | 0.00 | 0.00 | 0.00 | 15 | 998.7 |
| 20260505025533 | 40 | 0.0 | 0.0 | 0.00 | 0.00 | 0.00 | 20 | 997.9 | |
| 20260505024531 | 39 | 0.0 | 0.0 | 0.00 | 0.00 | 0.00 | 25 | 998.1 | |
| 20260505023531 | 39 | 0.0 | 0.0 | 0.00 | 0.00 | 0.00 | 28 | 998.3 | |
| 20260505022530 | 40 | 293 | 1.0 | 4.0 | 0.00 | 0.00 | 0.00 | 29 | 998.6 |
| 20260505021550 | 40 | 293 | 1.0 | 3.0 | 0.00 | 0.00 | 0.00 | 34 | 998.3 |
| 20260505020532 | 40 | 0.0 | 0.0 | 0.00 | 0.00 | 0.00 | 36 | 998.2 | |
| 20260505015531 | 40 | 0.0 | 0.0 | 0.00 | 0.00 | 0.00 | 38 | 998.4 | |
| 20260505014530 | 40 | 0.0 | 3.0 | 0.00 | 0.00 | 0.00 | 41 | 998.9 | |
| 20260505013531 | 40 | 293 | 1.0 | 4.0 | 0.00 | 0.00 | 0.00 | 42 | 999.0 |
| 20260505012530 | 41 | 0.0 | 0.0 | 0.00 | 0.00 | 0.00 | 43 | 999.3 | |
| 20260505011531 | 41 | 0.0 | 0.0 | 0.00 | 0.00 | 0.00 | 43 | 999.4 | |
| 20260505010550 | 41 | 293 | 1.0 | 5.0 | 0.00 | 0.00 | 0.00 | 39 | 999.4 |
| 20260505005530 | 41 | 293 | 1.0 | 4.0 | 0.00 | 0.00 | 0.00 | 33 | 999.4 |
| 20260505004531 | 41 | 0.0 | 3.0 | 0.00 | 0.00 | 0.00 | 32 | 999.4 | |
| 20260505003611 | 41 | 0.0 | 2.0 | 0.00 | 0.00 | 0.00 | 39 | 999.2 | |
| 20260505002530 | 42 | 293 | 1.0 | 7.0 | 0.00 | 0.00 | 0.00 | 35 | 999.5 |